Search for airport 
image banner adimage banner ad
image banner ad

FQPB - Pemba / National

Located in Pemba, Mozambique

ICAO - FQPB, IATA - POL

Data provided by Airmate  

General information

Coordinates: S12°59'30" E40°31'27"
Elevation is 331 feet MSL.
 
View others Airports in Cabo Delgado Province

Operational data

Open for public use
Current time UTC:
Current local time:
Weather
METAR: FQPB 281300Z 09010KT 060V130 9999 FEW020 29/23 Q1013
TAF: TAF FQPB 281000Z 2812/2912 09010KT 9999 SCT020 TX30/2813Z TN23/2903Z BECMG 2900/2902 VRB02KT BECMG 2906/2908 10010KT
View NOTAMs / SUP AIP / TFR affecting this airport [VIEW]
Communications frequencies: [VIEW]

Runways:

RWY identifierQFULength (ft)Width (ft)SurfaceLDA (ft)
0878°262598ASP
2600
175906148
355906148

Airport contact information

Address: Pemba Mozambique

Satellite view of FQPB